Regional Weather Roundup
Issued by NWS

Home | Current Version | Previous Version | Text Only | Print | Product List | Glossary On
Versions: 1 2 3 4 5 6 7 8 9 10 11 12 13 14 15 16 17 18 19 20 21 22 23 24 25 26 27 28 29 30 31 32 33 34 35 36 37 38 39 40 41 42 43 44 45 46 47 48 49 50
000
ASUS45 KABQ 222210
RWRNM
NEW MEXICO REGIONAL WEATHER ROUNDUP
NATIONAL WEATHER SERVICE ALBUQUERQUE NM
400 PM MDT SAT JUL 22 2017

NOTE: "FAIR" MEANS FEW OR NO CLOUDS BELOW 12,000 FEET AGL WITH NO
       SIGNIFICANT WEATHER OR OBSTRUCTIONS TO VISION.

      THIS PRODUCT IS RELEASED AS TWO VERSIONS.  ONE VERSION NEAR
      THE TOP OF THE HOUR CONTAINING PRELIMINARY DATA FROM ALBUQUERQUE
      AND OTHER STATIONS.  A FINAL VERSION WITH ADDITIONAL DATA IS
      ISSUED ABOUT 10 MINUTES AFTER THE HOUR.

NMZ501-503-504-510>518-222300-
NORTHWEST PLATEAU/NORTHCENTRAL MOUNTAINS

CITY           SKY/WX    TMP DP  RH WIND       PRES   REMARKS
FARMINGTON     FAIR      91  49  23 W13       30.10F
LOS ALAMOS     FAIR      79  42  27 S15G22    30.25S
SANTA FE       FAIR      91  39  16 SE15G22   30.14F
TAOS           CLOUDY    68  52  56 SE13      30.32R
ANGEL FIRE     LGT RAIN  56  53  88 CALM      30.45S

$$
NMZ402-403-502-505>509-222300-
WESTCENTRAL MOUNTAINS/SOUTHWEST MOUNTAINS

CITY           SKY/WX    TMP DP  RH WIND       PRES   REMARKS
GALLUP         PTSUNNY   70  58  65 CALM      30.21S
GRANTS         FAIR      88  35  15 S8        30.18F
SILVER CITY    FAIR      80  57  45 E7        30.13R

$$
NMZ407-409-411-412-222300-
SOUTHERN DESERTS

CITY           SKY/WX    TMP DP  RH WIND       PRES   REMARKS
DEMING         CLOUDY    80  65  59 SE14G23   30.06R THUNDER
LAS CRUCES     FAIR      83  60  45 S8        30.05F
HOLLOMAN AFB   FAIR      93  57  29 E6        30.01F
ALAMOGORDO     FAIR      88  57  35 NE6       30.02F
T OR C         PTSUNNY   90  55  30 S8        30.04F

$$
NMZ519>523-222300-
CENTRAL VALLEYS/CENTRAL HIGHLANDS

CITY           SKY/WX    TMP DP  RH WIND       PRES   REMARKS
ALBUQUERQUE    PTSUNNY   92  48  22 VRB7      30.06F
DOUBLE EAGLE   PTSUNNY   90  45  20 VRB7      30.11F
MORIARTY ARPT  FAIR      91  44  19 W7        30.14F
CLINES CORNERS FAIR      84  42  22 E8        30.21F
BELEN          FAIR      92  48  22 S6        30.05F
SOCORRO        FAIR      91  49  23 SE7       30.03F

$$
NMZ524>526-539-540-222300-
SOUTHCENTRAL MOUNTAINS

CITY           SKY/WX    TMP DP  RH WIND       PRES   REMARKS
RUIDOSO        FAIR      79  52  38 SW14G21   30.22F

$$
NMZ527>531-222300-
NORTHEAST HIGHLANDS/NORTHEAST PLAINS

CITY           SKY/WX    TMP DP  RH WIND       PRES   REMARKS
LAS VEGAS      FAIR      87  37  17 S10       30.22F
RATON          RAIN      63  55  75 N13       30.29R
CLAYTON        FAIR      91  51  25 NE8       30.10S

$$
NMZ532>537-222300-
EASTCENTRAL PLAINS

CITY           SKY/WX    TMP DP  RH WIND       PRES   REMARKS
SANTA ROSA     FAIR      91  44  19 SE3       30.02F
TUCUMCARI      FAIR     100  46  16 E5G18     29.95F HX  96
CANNON AFB     PTSUNNY   93  54  26 S13       30.01F
CLOVIS AIRPORT FAIR      95  55  26 SE10G22   30.01F

$$
NMZ028-029-538-222300-
SOUTHEAST PLAINS

CITY           SKY/WX    TMP DP  RH WIND       PRES   REMARKS
ROSWELL        PTSUNNY   95  57  27 S22G40    29.96F
ARTESIA        FAIR      88  57  35 SE17      29.99F
CARLSBAD       FAIR      80  70  71 N6        29.97F
HOBBS          SUNNY     93  52  24 SE12      30.00F


$$




USA.gov is the U.S. government's official web portal to all federal, state and local government web resources and services.